TimeCST,TemperatureF,Dew PointF,Humidity,Sea Level PressureIn,VisibilityMPH,Wind Direction,Wind SpeedMPH,Gust SpeedMPH,PrecipitationIn,Events,Conditions,WindDirDegrees,DateUTC
12:55 AM,42.3,40.5,93,30.16,10.0,Calm,Calm,-,N/A,,Clear,0,2012-11-20 06:55:00
1:55 AM,41.0,39.6,95,30.16,10.0,Calm,Calm,-,N/A,,Clear,0,2012-11-20 07:55:00
2:55 AM,39.9,38.3,94,30.16,10.0,Calm,Calm,-,N/A,,Clear,0,2012-11-20 08:55:00
3:55 AM,39.7,38.3,95,30.15,10.0,Calm,Calm,-,N/A,,Clear,0,2012-11-20 09:55:00
4:55 AM,40.5,39.2,95,30.16,10.0,Calm,Calm,-,N/A,,Partly Cloudy,0,2012-11-20 10:55:00
5:55 AM,42.1,39.9,92,30.17,10.0,Calm,Calm,-,N/A,,Scattered Clouds,0,2012-11-20 11:55:00
6:55 AM,42.8,41.9,97,30.18,10.0,Calm,Calm,-,N/A,,Clear,0,2012-11-20 12:55:00
7:55 AM,49.6,45.9,87,30.20,10.0,NNW,3.5,-,N/A,,Clear,340,2012-11-20 13:55:00
8:55 AM,59.0,50.2,73,30.19,10.0,NNE,3.5,-,N/A,,Mostly Cloudy,20,2012-11-20 14:55:00
9:55 AM,64.6,52.5,65,30.20,10.0,NW,2.3,-,N/A,,Mostly Cloudy,320,2012-11-20 15:55:00
10:55 AM,66.7,53.2,62,30.17,10.0,North,5.8,-,N/A,,Mostly Cloudy,350,2012-11-20 16:55:00
11:58 AM,67.1,51.6,57,30.14,10.0,Variable,5.8,-,N/A,,Mostly Cloudy,0,2012-11-20 17:58:00
12:55 PM,67.5,50.9,55,30.12,10.0,NNE,6.9,-,N/A,,Mostly Cloudy,20,2012-11-20 18:55:00
1:55 PM,66.6,51.8,59,30.10,10.0,NNW,5.8,-,N/A,,Mostly Cloudy,330,2012-11-20 19:55:00
2:55 PM,67.3,50.7,55,30.10,10.0,Variable,4.6,-,N/A,,Mostly Cloudy,0,2012-11-20 20:55:00
3:55 PM,65.1,51.3,61,30.10,10.0,NNW,4.6,-,N/A,,Mostly Cloudy,340,2012-11-20 21:55:00
4:48 PM,62.6,53.6,72,30.10,10.0,North,5.8,-,N/A,,Light Drizzle,350,2012-11-20 22:48:00
4:55 PM,62.2,53.2,72,30.11,10.0,NNW,5.8,-,0.00,,Light Drizzle,340,2012-11-20 22:55:00
5:33 PM,59.0,53.6,82,30.10,10.0,Calm,Calm,-,N/A,,Mostly Cloudy,0,2012-11-20 23:33:00
5:55 PM,58.8,54.0,84,30.12,10.0,NW,3.5,-,0.00,,Mostly Cloudy,310,2012-11-20 23:55:00
6:55 PM,57.0,52.3,84,30.14,10.0,WNW,4.6,-,N/A,,Scattered Clouds,300,2012-11-21 00:55:00
7:55 PM,56.3,52.5,87,30.13,10.0,NW,3.5,-,N/A,,Scattered Clouds,310,2012-11-21 01:55:00
8:55 PM,52.0,51.1,97,30.13,10.0,Calm,Calm,-,N/A,,Scattered Clouds,0,2012-11-21 02:55:00
9:55 PM,52.2,51.1,96,30.15,10.0,NW,3.5,-,N/A,,Mostly Cloudy,310,2012-11-21 03:55:00
10:55 PM,52.5,51.1,95,30.14,10.0,Calm,Calm,-,N/A,,Mostly Cloudy,0,2012-11-21 04:55:00
11:55 PM,50.4,49.3,96,30.14,10.0,NW,3.5,-,N/A,,Mostly Cloudy,310,2012-11-21 05:55:00